[[{"header":{"parameterUnit":"m.s-1","parameterCategory":1,"la1":30.2991,"la2":30.254,"lo1":-89.0895,"lo2":-89.0444,"dy":0.0017,"dx":0.0017,"nx":28,"ny":28,"refTime":"2025-01-29T09:00:00:Z","depth":0,"parameterNumber":2,"parameterNumberName":"U-component_of_WINDS"},"data":[0,0,0,0,0,0,0,0,0,0,0,0,0,0,0,0,0,0,0,0,0,0,0,0,0,0,0,0,0,0,0,0,0,0,0,0,0,0,0,0,0,0,0,0,0,0,0,0,0,0,0,0,0,0,0,0,0,0,-3.6539,-3.654,0,-3.666,-3.6661,-3.6663,-3.6678,-3.6677,-3.6675,-3.6674,-3.68,-3.6804,-3.6808,0,0,0,0,0,0,0,0,0,0,0,0,0,-3.6323,-3.6327,-3.6539,-3.654,-3.6542,-3.666,-3.6661,-3.6663,-3.6678,-3.6677,-3.6675,-3.6674,-3.6798,-3.6803,-3.6809,0,0,0,0,0,0,0,0,0,0,0,0,0,-3.6428,-3.6328,-3.6538,-3.6563,-3.6567,-3.6659,-3.6661,-3.6663,-3.6678,-3.6677,-3.6675,-3.6673,-3.6796,-3.6803,-3.6809,-3.6886,0,0,-3.683,-3.6833,0,0,0,0,0,0,0,0,-3.6422,-3.6436,-3.6558,-3.6562,-3.6566,-3.6652,-3.6631,-3.6738,-3.6679,-3.6636,-3.6674,-3.6672,-3.6752,-3.6762,-3.6789,-3.6891,-3.6897,-3.683,-3.6834,-3.6837,-3.6839,0,0,0,0,0,0,0,-3.6414,-3.6431,-3.6587,-3.656,-3.6565,-3.6569,-3.6582,-3.6651,-3.6702,-3.664,-3.6641,-3.6655,-3.6754,-3.6782,-3.6792,-3.6899,-3.683,-3.6836,-3.684,-3.6843,-3.7071,-3.7073,0,0,0,0,0,0,-3.6402,-3.6424,-3.6583,-3.659,-3.6488,-3.6575,-3.6589,-3.6626,-3.6702,-3.6712,-3.6656,-3.6655,-3.6772,-3.6784,-3.6796,-3.6891,-3.6837,-3.6843,-3.6847,-3.7069,-3.7072,-3.7074,0,0,0,0,0,0,-3.6398,-3.6416,-3.6578,-3.6508,-3.6529,-3.658,-3.6622,-3.6629,-3.6658,-3.6714,-3.6724,-3.6676,-3.6771,-3.6787,-3.6863,-3.6895,-3.6846,-3.6852,-3.7067,-3.707,-3.7073,-3.708,0,0,0,0,0,0,-3.6391,-3.6415,-3.6443,-3.6508,-3.6532,-3.6642,-3.6624,-3.6633,-3.6669,-3.6669,-3.6735,-3.6745,-3.6771,-3.6853,-3.687,-3.6903,-3.6858,-3.7064,-3.7068,-3.7072,-3.7077,-3.7083,-3.7088,0,0,0,0,0,-3.6384,-3.644,-3.6445,-3.6464,-3.6569,-3.6644,-3.6658,-3.6686,-3.6672,-3.6701,-3.6738,-3.6743,-3.6889,-3.6861,-3.688,-3.6916,-3.7062,-3.7067,-3.7072,-3.7074,-3.7081,-3.7087,0,0,0,0,0,0,-3.6378,-3.6449,-3.6455,-3.6534,-3.6583,-3.6646,-3.6684,-3.6693,-3.6747,-3.6744,-3.6778,-3.6793,-3.6868,-3.69,-3.6867,-3.6994,-3.6975,-3.6983,-3.697,-3.6977,-3.6983,-3.6973,-3.6863,0,0,0,0,0,-3.6386,-3.644,-3.65,-3.6564,-3.6588,-3.6632,-3.6666,-3.6684,-3.6736,-3.6757,-3.6799,-3.6849,-3.6907,-3.6944,-3.7001,-3.7082,-3.7097,-3.7116,-3.7122,-3.7126,-3.7133,-3.7179,-3.7188,-3.709,-3.7089,-3.7089,0,0,-3.6402,-3.6448,-3.648,-3.6564,-3.6604,-3.666,-3.6649,-3.6709,-3.6751,-3.6766,-3.684,-3.6873,-3.6932,-3.7012,-3.7049,-3.7041,-3.7164,-3.7132,-3.7135,-3.7139,-3.7185,-3.7194,-3.7202,-3.7093,-3.7092,-3.7092,0,0,-3.6461,-3.6501,-3.6559,-3.66,-3.6661,-3.669,-3.6704,-3.6767,-3.6789,-3.6865,-3.6877,-3.6929,-3.7027,-3.7069,-3.7103,-3.718,-3.7186,-3.7198,-3.7225,-3.727,-3.7278,-3.7285,-3.7312,-3.7321,-3.7205,-3.7205,-3.7205,0,-3.6474,-3.6558,-3.6588,-3.6648,-3.6684,-3.6701,-3.6761,-3.6799,-3.6875,-3.69,-3.689,-3.7015,-3.7056,-3.7145,-3.7164,-3.7192,-3.7209,-3.7189,-3.7274,-3.7282,-3.7289,-3.7315,-3.7325,-3.7206,-3.7205,-3.7205,-3.7205,0,-3.6571,-3.663,-3.667,-3.6742,-3.6784,-3.6843,-3.6883,-3.6922,-3.6937,-3.6968,-3.7045,-3.7095,-3.7162,-3.7185,-3.72,-3.7278,-3.7271,-3.7267,-3.7248,-3.7298,-3.7324,-3.7334,-3.7207,-3.7207,-3.7206,-3.7206,0,0,-3.6627,-3.6718,-3.6732,-3.6765,-3.6834,-3.688,-3.6941,-3.7007,-3.7039,-3.7092,-3.7144,-3.7228,-3.7225,-3.7264,-3.7285,-3.7324,-3.7382,-3.7316,-3.7318,-3.7326,-3.7471,-3.7472,-3.7483,-3.7388,-3.739,-3.7391,-3.7465,0,-3.6694,-3.6801,-3.6831,-3.6922,-3.6977,-3.6995,-3.7048,-3.7096,-3.7127,-3.7179,-3.7214,-3.7273,-3.7265,-3.7289,-3.7329,-3.7366,-3.7411,-3.7362,-3.7436,-3.7439,-3.7419,-3.7496,-3.7497,-3.7565,-3.7475,-3.7477,-3.7478,0,-3.6784,-3.6839,-3.6935,-3.6998,-3.7022,-3.7069,-3.7132,-3.7181,-3.7238,-3.7258,-3.7302,-3.7319,-3.7385,-3.7363,-3.7454,-3.7419,-3.7452,-3.7476,-3.7479,-3.7486,-3.746,-3.7504,-3.7587,-3.7596,-3.7494,-3.7493,-3.7492,0,-3.6815,-3.6912,-3.6983,-3.7011,-3.7087,-3.7119,-3.7153,-3.7207,-3.7245,-3.7301,-3.7326,-3.7389,-3.7423,-3.7471,-3.7506,-3.7487,-3.7594,-3.7575,-3.7612,-3.7611,-3.7632,-3.763,-3.772,-3.7655,-3.7655,-3.7655,-3.7655,0,-3.6884,-3.6943,-3.6997,-3.704,-3.7107,-3.7142,-3.7207,-3.7241,-3.729,-3.734,-3.7361,-3.7408,-3.7451,-3.7505,-3.7533,-3.7604,-3.7619,-3.7637,-3.7644,-3.7635,-3.7632,-3.7655,-3.7651,-3.7658,-3.7657,-3.7656,-3.7656,0,-3.6928,-3.6968,-3.7045,-3.7111,-3.7129,-3.7175,-3.7232,-3.7275,-3.7308,-3.7372,-3.7389,-3.744,-3.7505,-3.7545,-3.7626,-3.7645,-3.7723,-3.7728,-3.7703,-3.7706,-3.7741,-3.7736,-3.7847,-3.7864,-3.7789,-3.779,-3.779,0,-3.6969,-3.7015,-3.7086,-3.7121,-3.7154,-3.7211,-3.725,-3.7287,-3.7327,-3.7396,-3.7431,-3.7496,-3.7551,-3.7653,-3.7698,-3.7761,-3.7767,-3.7802,-3.7777,-3.7767,-3.7767,-3.7763,-3.7768,-3.7806,-3.7806,-3.7807,-3.7807,0,-3.7038,-3.7056,-3.711,-3.7173,-3.7219,-3.727,-3.732,-3.7348,-3.7394,-3.7438,-3.7504,-3.7546,-3.7631,-3.7696,-3.7763,-3.7798,-3.7811,-3.7815,-3.7827,-3.7817,-3.7801,-3.781,-3.7713,-3.7812,-3.7812,-3.7811,-3.7811,-3.7811,-3.7082,-3.7123,-3.7179,-3.724,-3.7283,-3.733,-3.7374,-3.7412,-3.7468,-3.7538,-3.7558,-3.7627,-3.7684,-3.7776,-3.7813,-3.7868,-3.7863,-3.788,-3.7884,-3.7888,-3.7888,-3.7793,-3.7881,-3.7881,-3.788,-3.788,-3.788,0,-3.7151,-3.7188,-3.7244,-3.7314,-3.7363,-3.7371,-3.7428,-3.7468,-3.7528,-3.758,-3.7634,-3.771,-3.7774,-3.7825,-3.7891,-3.7925,-3.7933,-3.7941,-3.7938,-3.7946,-3.7889,-3.7872,-3.7934,-3.7934,-3.7934,-3.7934,-3.7934,-3.7934,-3.7192,-3.7262,-3.7287,-3.7379,-3.7416,-3.7484,-3.7516,-3.756,-3.7602,-3.7686,-3.7739,-3.7772,-3.7824,-3.7894,-3.7953,-3.7967,-3.799,-3.7997,-3.8012,-3.7956,-3.795,-3.7945,-3.7929,-3.8002,-3.8002,-3.8065,-3.8065,-3.8066]},{"header":{"parameterUnit":"m.s-1","parameterCategory":1,"la1":30.2991,"la2":30.254,"lo1":-89.0895,"lo2":-89.0444,"dy":0.0017,"dx":0.0017,"nx":28,"ny":28,"refTime":"2025-01-29T09:00:00:Z","depth":0,"parameterNumber":3,"parameterNumberName":"V-component_of_WINDS"},"data":[0,0,0,0,0,0,0,0,0,0,0,0,0,0,0,0,0,0,0,0,0,0,0,0,0,0,0,0,0,0,0,0,0,0,0,0,0,0,0,0,0,0,0,0,0,0,0,0,0,0,0,0,0,0,0,0,0,0,3.5428,3.5429,0,3.5468,3.5469,3.5469,3.5484,3.5484,3.5484,3.5483,3.5521,3.5522,3.5523,0,0,0,0,0,0,0,0,0,0,0,0,0,3.5365,3.5366,3.5428,3.5429,3.5429,3.5468,3.5469,3.5469,3.5484,3.5484,3.5483,3.5483,3.552,3.5522,3.5523,0,0,0,0,0,0,0,0,0,0,0,0,0,3.5397,3.5366,3.5428,3.5441,3.5443,3.5468,3.5469,3.5469,3.5484,3.5484,3.5483,3.5483,3.552,3.5522,3.5523,3.5537,0,0,3.5528,3.5529,0,0,0,0,0,0,0,0,3.5395,3.5399,3.5439,3.5441,3.5442,3.5471,3.546,3.5492,3.5484,3.5468,3.5483,3.5483,3.5504,3.5507,3.5515,3.5539,3.554,3.5528,3.5529,3.553,3.5531,0,0,0,0,0,0,0,3.5393,3.5398,3.5444,3.544,3.5442,3.5445,3.545,3.5466,3.5487,3.547,3.5471,3.5475,3.5505,3.5513,3.5516,3.5541,3.5528,3.553,3.5531,3.5532,3.5582,3.5583,0,0,0,0,0,0,3.5389,3.5396,3.5443,3.5445,3.5418,3.5446,3.5451,3.5462,3.5486,3.549,3.5476,3.5476,3.551,3.5514,3.5517,3.5538,3.553,3.5532,3.5533,3.5582,3.5582,3.5583,0,0,0,0,0,0,3.5387,3.5393,3.5441,3.5421,3.5427,3.5448,3.5459,3.5463,3.5471,3.5491,3.5495,3.548,3.551,3.5515,3.5533,3.5539,3.5532,3.5534,3.5582,3.5582,3.5583,3.5578,0,0,0,0,0,0,3.5385,3.5392,3.5397,3.5421,3.5428,3.5457,3.546,3.5464,3.5474,3.5475,3.5496,3.55,3.5511,3.5531,3.5535,3.5541,3.5535,3.5581,3.5582,3.5582,3.5577,3.5578,3.5578,0,0,0,0,0,3.5383,3.5393,3.5398,3.5403,3.5436,3.5457,3.5461,3.5475,3.5475,3.5481,3.5494,3.5499,3.5538,3.5532,3.5537,3.5544,3.5581,3.5582,3.5582,3.5577,3.5578,3.5578,0,0,0,0,0,0,3.5367,3.5396,3.5402,3.5419,3.5436,3.5459,3.5467,3.5474,3.549,3.549,3.5505,3.551,3.5528,3.5537,3.5531,3.5561,3.556,3.5562,3.5554,3.5555,3.5555,3.5553,3.5537,0,0,0,0,0,3.5366,3.5382,3.5406,3.5419,3.5427,3.5446,3.5455,3.5465,3.5482,3.5489,3.5503,3.5519,3.5535,3.5545,3.5561,3.5579,3.5585,3.5586,3.5587,3.5587,3.5589,3.5602,3.5604,3.5585,3.5585,3.5585,0,0,3.5363,3.5381,3.5389,3.5416,3.543,3.5447,3.5451,3.5467,3.548,3.549,3.551,3.5521,3.554,3.5559,3.5568,3.5568,3.5595,3.5588,3.5588,3.559,3.5603,3.5605,3.5607,3.5586,3.5586,3.5586,0,0,3.5367,3.5381,3.5396,3.5411,3.5433,3.5446,3.5449,3.5472,3.5481,3.5501,3.5511,3.5526,3.5552,3.5567,3.5577,3.5591,3.5597,3.5595,3.5598,3.5611,3.5612,3.5614,3.5621,3.5623,3.5596,3.5596,3.5596,0,3.5361,3.5386,3.5402,3.5419,3.5432,3.5445,3.546,3.5473,3.5498,3.5507,3.5507,3.5543,3.5556,3.5581,3.5585,3.5592,3.5598,3.5593,3.5611,3.5613,3.5614,3.5621,3.5624,3.5596,3.5596,3.5596,3.5596,0,3.5379,3.5396,3.5405,3.5432,3.5446,3.5461,3.548,3.5492,3.5501,3.5514,3.5536,3.5553,3.5574,3.558,3.5587,3.5607,3.5606,3.5608,3.5607,3.5616,3.5623,3.5625,3.5596,3.5596,3.5596,3.5596,0,0,3.5371,3.541,3.5413,3.5428,3.5454,3.5468,3.5486,3.5508,3.5519,3.5537,3.5553,3.5577,3.5581,3.5593,3.5602,3.5613,3.5627,3.5615,3.5615,3.5618,3.5652,3.5651,3.5654,3.5631,3.5631,3.5632,3.5651,0,3.538,3.5414,3.543,3.5456,3.5474,3.5489,3.5504,3.5523,3.5536,3.5553,3.5568,3.5586,3.5587,3.5596,3.5607,3.5623,3.5634,3.5621,3.5647,3.5648,3.5643,3.5657,3.5656,3.5674,3.5654,3.5654,3.5654,0,3.5394,3.5416,3.5444,3.5473,3.5481,3.5495,3.5519,3.5535,3.5557,3.5566,3.5582,3.5592,3.5612,3.561,3.5638,3.5629,3.5641,3.565,3.5651,3.5655,3.5652,3.5664,3.5679,3.5682,3.5658,3.5658,3.5658,0,3.539,3.5425,3.5448,3.5459,3.5492,3.5502,3.5516,3.5538,3.5552,3.5572,3.5582,3.5604,3.5616,3.5633,3.5649,3.5646,3.5677,3.5675,3.5687,3.5686,3.5693,3.5693,3.5713,3.5698,3.5698,3.5697,3.5697,0,3.5399,3.5416,3.5447,3.546,3.5481,3.5501,3.5521,3.5536,3.5556,3.5574,3.5586,3.5603,3.5623,3.5642,3.5654,3.5678,3.5682,3.5691,3.5694,3.5691,3.569,3.5699,3.5699,3.5698,3.5698,3.5698,3.5698,0,3.5397,3.5417,3.5444,3.5474,3.5483,3.5497,3.5523,3.5538,3.5553,3.5576,3.5582,3.5606,3.5629,3.5648,3.5677,3.5686,3.5711,3.5714,3.5705,3.5707,3.5718,3.5717,3.5745,3.5751,3.5731,3.5731,3.5731,0,3.5401,3.5416,3.545,3.5464,3.5479,3.55,3.5515,3.5535,3.5551,3.558,3.5591,3.5616,3.5637,3.5674,3.5694,3.5717,3.5722,3.573,3.5725,3.5722,3.5725,3.5725,3.5727,3.5731,3.5731,3.5731,3.5731,0,3.5409,3.542,3.5442,3.5469,3.5488,3.5509,3.5531,3.5541,3.5566,3.5582,3.5608,3.5625,3.5657,3.5682,3.5709,3.5723,3.5732,3.5733,3.5737,3.5734,3.5729,3.5735,3.5708,3.5732,3.5732,3.5732,3.5732,3.5732,3.5412,3.5427,3.5455,3.548,3.5499,3.552,3.5537,3.5556,3.5578,3.5608,3.5618,3.5645,3.567,3.5707,3.5722,3.5743,3.5743,3.5749,3.5751,3.5752,3.5753,3.5725,3.5748,3.5748,3.5748,3.5748,3.5748,0,3.5422,3.5442,3.5465,3.5497,3.5518,3.5526,3.5552,3.5568,3.5593,3.5616,3.5638,3.5669,3.5694,3.5717,3.5744,3.5757,3.5762,3.5764,3.5763,3.5767,3.575,3.5745,3.5759,3.5759,3.5759,3.5759,3.5759,3.5759,3.543,3.5457,3.5472,3.5509,3.5528,3.5557,3.5571,3.5591,3.5611,3.5646,3.5668,3.5684,3.5707,3.5737,3.5761,3.5767,3.5777,3.5778,3.5786,3.5769,3.5768,3.5767,3.5762,3.578,3.578,3.5802,3.5802,3.5802]}]]